ATLAS 5 CENTAUR R/B, 40209

Orbit data source: Space-Track

ATLAS 5 CENTAUR R/B, 40209 is space debris in HEO originally from a launch on Wed, 17 Sep 2014 UTC launched from the Air Force Eastern Test Range (AFETR). Debris objects in space refer to the collection of defunct objects orbiting the Earth. Examples of debris include non-operational satellites, rocket bodies, and fragments generated from explosions, collisions, or faulty payload assembly.

Loading next visibility...
Identifier
40209, 2014-055B
Orbit
HEO
Country
Flag of USUS
Related business
Flag of USUnited Launch Alliance/Lockheed Martin (US)
Manufacturer
ULA Decatur
Mission
Spacecraft
Bus & Motor
CENTAUR SEC, RL10-4A-2
Mass
~2,020 kg wet, 2,020 kg dry
Launch date (UTC)
2014-09-17 (12 years ago)
Launch vehicle
Unknown
Launch site
Air Force Eastern Test Range (AFETR)
Object type
Payload
Rocket body
Debris
Shape & HBR
Cyl + 1 Nozzle, 5.8 m
Radar Cross Section
32.260 m², Medium (>0.1 m² and < 1m²)

Expand to show TLE details & history
Last TLE update: 1 day ago

TLE from 1 day ago
0 ATLAS 5 CENTAUR R/B
1 40209U 14055B   26132.62103187  .00000037  00000-0  00000-0 0  9992
2 40209  20.0827 145.3728 4804077 161.7391 224.3531  1.85506957381877
Epoch: 2026-05-12T14:54Z
TLE epoch observation values (Epoch: 2026-05-12T14:54:17.153Z)
Latitude
-0.00006°
Longitude
51.44854°
Altitude
33,168.281 km
Speed
2.432 km/s
True Right ascension
09h 41m 39s
True Declination
0° 00' 00"
Sunlit
Object was in daylight at epoch
Visualization orbit readout
Latitude
Unknown
Longitude
Unknown
Altitude
Unknown
Speed
Unknown
Apparent Right ascension
Unknown
Apparent Declination
Unknown
Sunlit
N/A
Visualization observer readout
Local Sidereal Time
07:41:41
Azimuth
Unknown
Elevation
Unknown
Doppler factor
Unknown
Orbital elements
Apogee altitude
35,044.695 km
Perigee altitude
8,160.415 km
Semi-major axis
27,980.692 km
Eccentricity
0.48041
Inclination
20.0827°
RAAN
145.3728°
Arg. of periapsis
161.7391°
True anomaly
198.29859°
Mean anomaly
224.3531°
Eccentric anomaly
210.41722°
Mean motion
0.46372 °/min
Orbital period
776.33 mins
BSTAR
0
Loading maneuver chart data...
Computing Atmospheric mass density...

Documentation

Showing up to 5 results
|